Time[GMT],salinity[psu](20m),sigma_t[kg/m^3](20m),conductivity[msiemens/cm](20m),temperature[C](20m)
2019-06-01 18:00,31.557,24.786,31.631,6.38
2019-06-01 19:00,31.537,24.766,31.643,6.42
2019-06-01 20:00,31.631,24.867,31.541,6.20
2019-06-01 21:00,31.626,24.859,31.572,6.24
2019-06-01 22:00,31.644,24.886,31.499,6.13
2019-06-01 23:00,31.507,24.731,31.688,6.51
2019-06-02 00:00,31.628,24.862,31.559,6.22
2019-06-02 01:00,31.653,24.901,31.453,6.07
2019-06-02 02:00,30.696,23.881,32.268,8.10
2019-06-02 03:00,31.055,24.267,31.973,7.35
2019-06-02 04:00,31.424,24.635,31.818,6.75
2019-06-02 05:00,31.502,24.720,31.736,6.57
2019-06-02 06:00,31.568,24.793,31.657,6.40
2019-06-02 07:00,31.579,24.818,31.554,6.27
2019-06-02 08:00,31.598,24.839,31.530,6.22
2019-06-02 09:00,31.566,24.802,31.579,6.31
2019-06-02 10:00,31.578,24.815,31.571,6.29
2019-06-02 11:00,31.173,24.394,31.870,7.09
2019-06-02 12:00,31.470,24.695,31.704,6.57
2019-06-02 13:00,31.461,24.675,31.786,6.67
2019-06-02 14:00,31.014,24.065,32.953,8.56
2019-06-02 15:00,31.339,24.497,32.197,7.30
2019-06-02 16:00,31.292,24.362,32.751,8.01
2019-06-02 17:00,31.376,24.558,32.028,7.06
2019-06-02 18:00,31.303,24.360,32.826,8.08
2019-06-02 19:00,31.195,24.217,33.066,8.49
2019-06-02 20:00,31.533,24.689,32.125,7.00
2019-06-02 21:00,31.512,24.735,31.695,6.51
2019-06-02 22:00,31.498,24.722,31.696,6.53
2019-06-02 23:00,31.520,24.745,31.683,6.49
2019-06-03 00:00,31.507,24.740,31.632,6.44
2019-06-03 01:00,31.494,24.717,31.707,6.54
2019-06-03 02:00,31.282,24.446,32.182,7.34
2019-06-03 03:00,31.135,24.169,33.011,8.49
2019-06-03 04:00,31.111,24.146,33.016,8.52
2019-06-03 05:00,31.164,24.220,32.879,8.30
2019-06-03 06:00,31.317,24.393,32.705,7.93
2019-06-03 07:00,31.245,24.420,32.133,7.33
2019-06-03 08:00,31.238,24.442,31.953,7.12
2019-06-03 09:00,31.472,24.686,31.775,6.65
2019-06-03 10:00,31.527,24.738,31.774,6.59
2019-06-03 11:00,31.472,24.644,32.047,6.97
2019-06-03 12:00,31.501,24.712,31.784,6.63
2019-06-03 13:00,31.498,24.717,31.733,6.57
2019-06-03 14:00,31.336,24.427,32.607,7.79
2019-06-03 15:00,31.414,24.612,31.905,6.87
2019-06-03 16:00,31.494,24.715,31.714,6.55
2019-06-03 17:00,31.553,24.791,31.573,6.32
2019-06-03 18:00,31.413,24.653,31.634,6.55
2019-06-03 19:00,31.286,24.367,32.691,7.94
2019-06-03 20:00,31.293,24.380,32.649,7.89
2019-06-03 21:00,31.271,24.344,32.747,8.03
2019-06-03 22:00,31.270,24.548,31.456,6.49
2019-06-03 23:00,31.490,24.740,31.527,6.33
2019-06-04 00:00,31.511,24.761,31.520,6.30
2019-06-04 01:00,31.516,24.767,31.505,6.28
2019-06-04 02:00,31.496,24.750,31.495,6.29
2019-06-04 03:00,31.351,24.634,31.378,6.30
2019-06-04 04:00,31.340,24.623,31.381,6.32
2019-06-04 05:00,31.346,24.625,31.404,6.34
2019-06-04 06:00,31.613,24.848,31.562,6.24
2019-06-04 07:00,31.573,24.816,31.531,6.25
2019-06-04 08:00,31.543,24.790,31.516,6.26
2019-06-04 09:00,31.568,24.811,31.531,6.25
2019-06-04 10:00,31.520,24.763,31.562,6.34
2019-06-04 11:00,31.401,24.636,31.673,6.60
2019-06-04 12:00,31.565,24.803,31.563,6.30
2019-06-04 13:00,31.573,24.811,31.563,6.29
2019-06-04 14:00,31.497,24.747,31.524,6.32
2019-06-04 15:00,31.498,24.761,31.431,6.21
2019-06-04 16:00,31.478,24.751,31.372,6.16
2019-06-04 17:00,31.531,24.785,31.476,6.23
2019-06-04 18:00,31.534,24.777,31.552,6.32
2019-06-04 19:00,31.554,24.795,31.550,6.29
2019-06-04 20:00,31.540,24.785,31.529,6.28
2019-06-04 21:00,31.403,24.677,31.412,6.29
2019-06-04 22:00,31.548,24.808,31.425,6.15
2019-06-04 23:00,31.284,24.568,31.406,6.41
2019-06-05 00:00,31.322,24.603,31.406,6.37
2019-06-05 01:00,31.425,24.699,31.399,6.25
2019-06-05 02:00,31.585,24.825,31.537,6.24
2019-06-05 03:00,31.568,24.814,31.512,6.23
2019-06-05 04:00,31.555,24.808,31.473,6.20
2019-06-05 05:00,31.490,24.744,31.499,6.30
2019-06-05 06:00,31.519,24.772,31.494,6.26
2019-06-05 07:00,31.487,24.752,31.421,6.21
2019-06-05 08:00,31.584,24.838,31.446,6.13
2019-06-05 09:00,31.589,24.848,31.416,6.09
2019-06-05 10:00,31.576,24.824,31.500,6.21
2019-06-05 11:00,31.487,24.758,31.380,6.16
2019-06-05 12:00,31.499,24.767,31.401,6.17
2019-06-05 13:00,31.528,24.778,31.506,6.27
2019-06-05 14:00,31.531,24.784,31.480,6.23
2019-06-05 15:00,31.496,24.759,31.434,6.22
2019-06-05 16:00,31.486,24.755,31.396,6.18
2019-06-05 17:00,31.560,24.810,31.488,6.21
2019-06-05 18:00,31.585,24.830,31.510,6.21
2019-06-05 19:00,31.578,24.827,31.486,6.19
2019-06-05 20:00,31.516,24.793,31.327,6.07
2019-06-05 21:00,31.506,24.782,31.344,6.10
2019-06-05 22:00,31.526,24.798,31.357,6.09
2019-06-05 23:00,31.499,24.738,31.601,6.41
2019-06-06 00:00,31.512,24.772,31.446,6.21
2019-06-06 01:00,31.534,24.784,31.502,6.26
2019-06-06 02:00,31.532,24.795,31.414,6.15
2019-06-06 03:00,31.566,24.840,31.322,6.01
2019-06-06 04:00,31.564,24.835,31.339,6.03
2019-06-06 05:00,31.577,24.841,31.383,6.07
2019-06-06 06:00,31.584,24.846,31.387,6.07
2019-06-06 07:00,31.696,24.822,32.244,6.96
2019-06-06 08:00,31.701,24.800,32.417,7.16
2019-06-06 09:00,31.673,24.760,32.503,7.29
2019-06-06 10:00,31.685,24.898,31.677,6.30
2019-06-06 11:00,31.592,24.857,31.365,6.03
2019-06-06 12:00,31.582,24.845,31.387,6.07
2019-06-06 13:00,31.580,24.683,32.440,7.32
2019-06-06 14:00,31.619,24.775,32.085,6.86
2019-06-06 15:00,31.596,24.779,31.920,6.69
2019-06-06 16:00,31.598,24.820,31.662,6.38
2019-06-06 17:00,31.677,24.824,32.117,6.83
2019-06-06 18:00,31.679,24.791,32.344,7.10
2019-06-06 19:00,31.672,24.785,32.339,7.10
2019-06-06 20:00,31.679,24.799,32.293,7.04
2019-06-06 21:00,31.640,24.746,32.396,7.20
2019-06-06 22:00,31.656,24.757,32.419,7.21
2019-06-06 23:00,31.637,24.737,32.440,7.26
2019-06-07 00:00,31.629,24.737,32.391,7.21
2019-06-07 01:00,31.682,24.799,32.309,7.05
2019-06-07 02:00,31.711,24.836,32.246,6.95
2019-06-07 03:00,31.699,24.824,32.251,6.97
2019-06-07 04:00,31.684,24.803,32.295,7.04
2019-06-07 05:00,31.698,24.800,32.398,7.14
2019-06-07 06:00,31.698,24.810,32.339,7.07
2019-06-07 07:00,31.730,24.837,32.353,7.05
2019-06-07 08:00,31.648,24.807,32.053,6.79
2019-06-07 09:00,31.604,24.771,32.022,6.80
2019-06-07 10:00,31.717,24.813,32.425,7.15
2019-06-07 11:00,31.670,24.776,32.389,7.16
2019-06-07 12:00,31.679,24.791,32.342,7.10
2019-06-07 13:00,31.599,24.691,32.504,7.38
2019-06-07 14:00,31.545,24.672,32.305,7.20
2019-06-07 15:00,31.583,24.689,32.424,7.30
2019-06-07 16:00,31.569,24.654,32.561,7.48
2019-06-07 17:00,31.664,24.763,32.429,7.22
2019-06-07 18:00,31.639,24.708,32.631,7.48
2019-06-07 19:00,31.670,24.815,32.134,6.86
2019-06-07 20:00,31.540,24.664,32.329,7.23
2019-06-07 21:00,31.614,24.741,32.274,7.09
2019-06-07 22:00,31.623,24.846,31.636,6.32
2019-06-07 23:00,31.630,24.777,32.144,6.92
2019-06-08 00:00,31.585,24.726,32.194,7.02
2019-06-08 01:00,31.604,24.746,32.188,7.00
2019-06-08 02:00,31.336,24.447,32.490,7.65
2019-06-08 03:00,31.631,24.742,32.369,7.18
2019-06-08 04:00,31.546,24.640,32.510,7.44
2019-06-08 05:00,31.515,24.630,32.394,7.34
2019-06-08 06:00,31.518,24.622,32.461,7.41
2019-06-08 07:00,31.539,24.681,32.216,7.10
2019-06-08 08:00,31.541,24.678,32.241,7.13
2019-06-08 09:00,31.501,24.610,32.438,7.41
2019-06-08 10:00,31.562,24.653,32.525,7.44
2019-06-08 11:00,31.454,24.548,32.552,7.59
2019-06-08 12:00,31.202,24.373,32.174,7.42
2019-06-08 13:00,31.439,24.609,32.078,7.05
2019-06-08 14:00,31.259,24.433,32.133,7.31
2019-06-08 15:00,31.600,24.751,32.128,6.93
2019-06-08 16:00,31.648,24.752,32.407,7.21
2019-06-08 17:00,31.697,24.776,32.547,7.32
2019-06-08 18:00,31.658,24.771,32.344,7.12
2019-06-08 19:00,31.643,24.714,32.612,7.46
2019-06-08 20:00,31.572,24.675,32.445,7.34
2019-06-08 21:00,31.570,24.709,32.221,7.07
2019-06-08 22:00,31.615,24.751,32.216,7.02
2019-06-08 23:00,31.409,24.575,32.114,7.12
2019-06-09 00:00,31.561,24.712,32.145,6.99
2019-06-09 01:00,31.584,24.730,32.168,6.99
2019-06-09 02:00,31.563,24.715,32.133,6.98
2019-06-09 03:00,31.549,24.704,32.129,6.99
2019-06-09 04:00,31.130,24.305,32.175,7.50
2019-06-09 05:00,31.459,24.643,31.983,6.91
2019-06-09 06:00,31.461,24.651,31.940,6.86
2019-06-09 07:00,31.609,24.750,32.189,6.99
2019-06-09 08:00,31.631,24.816,31.889,6.61
2019-06-09 09:00,31.608,24.747,32.200,7.01
2019-06-09 10:00,31.215,24.406,32.039,7.25
2019-06-09 11:00,31.394,24.584,31.966,6.96
2019-06-09 12:00,31.541,24.714,32.008,6.85
2019-06-09 13:00,31.575,24.741,32.047,6.86
2019-06-09 14:00,31.445,24.615,32.076,7.04
2019-06-09 15:00,31.450,24.620,32.072,7.03
2019-06-09 16:00,31.570,24.729,32.091,6.92
2019-06-09 17:00,31.519,24.689,32.040,6.91
2019-06-09 18:00,31.560,24.733,32.001,6.82
2019-06-09 19:00,31.545,24.730,31.930,6.75
2019-06-09 20:00,31.490,24.676,31.947,6.84
2019-06-09 21:00,31.527,24.720,31.889,6.72
2019-06-09 22:00,31.518,24.698,31.977,6.84
2019-06-09 23:00,31.573,24.748,31.984,6.79
2019-06-10 00:00,31.543,24.727,31.940,6.77
2019-06-10 01:00,31.522,24.712,31.911,6.76
2019-06-10 02:00,31.536,24.744,31.784,6.59
2019-06-10 03:00,31.434,24.595,32.136,7.12
2019-06-10 04:00,31.534,24.727,31.888,6.72
2019-06-10 05:00,31.602,24.786,31.910,6.67
2019-06-10 06:00,31.605,24.787,31.928,6.69
2019-06-10 07:00,31.593,24.777,31.914,6.68
2019-06-10 08:00,31.610,24.787,31.948,6.71
2019-06-10 09:00,31.623,24.795,31.985,6.73
2019-06-10 10:00,31.622,24.791,32.002,6.76
2019-06-10 11:00,31.559,24.752,31.875,6.67
2019-06-10 12:00,31.530,24.714,31.948,6.79
2019-06-10 13:00,31.490,24.638,32.193,7.13
2019-06-10 14:00,31.545,24.705,32.095,6.95
2019-06-10 15:00,31.621,24.793,31.983,6.73
2019-06-10 16:00,31.596,24.774,31.950,6.72
2019-06-10 17:00,31.604,24.756,32.116,6.91
2019-06-10 18:00,31.497,24.660,32.095,7.00
2019-06-10 19:00,31.649,24.792,32.154,6.91
2019-06-10 20:00,31.663,24.795,32.223,6.97
2019-06-10 21:00,31.614,24.763,32.136,6.92
2019-06-10 22:00,31.652,24.782,32.237,7.00
2019-06-10 23:00,31.579,24.743,32.054,6.86
2019-06-11 00:00,31.561,24.733,32.005,6.83
2019-06-11 01:00,31.527,24.669,32.217,7.11
2019-06-11 02:00,31.564,24.725,32.080,6.91
2019-06-11 03:00,31.586,24.739,32.118,6.93
2019-06-11 04:00,31.584,24.748,32.048,6.85
2019-06-11 05:00,31.595,24.750,32.105,6.91
2019-06-11 06:00,31.594,24.741,32.153,6.97
2019-06-11 07:00,31.602,24.739,32.216,7.03
2019-06-11 08:00,31.524,24.667,32.212,7.11
2019-06-11 09:00,31.566,24.707,32.207,7.06
2019-06-11 10:00,31.540,24.721,31.958,6.79
2019-06-11 11:00,31.449,24.630,32.008,6.95
2019-06-11 12:00,31.517,24.703,31.938,6.79
2019-06-11 13:00,31.604,24.791,31.888,6.64
2019-06-11 14:00,31.618,24.802,31.900,6.64
2019-06-11 15:00,31.642,24.831,31.857,6.56
2019-06-11 16:00,31.714,24.929,31.643,6.23
2019-06-11 17:00,31.720,24.923,31.723,6.32
2019-06-11 18:00,31.677,24.871,31.806,6.46
2019-06-11 19:00,31.654,24.856,31.769,6.44
2019-06-11 20:00,31.541,24.728,31.920,6.75
2019-06-11 21:00,31.533,24.718,31.938,6.78
2019-06-11 22:00,31.589,24.764,31.973,6.76
2019-06-11 23:00,31.679,24.899,31.632,6.26
2019-06-12 00:00,31.676,24.893,31.649,6.28
2019-06-12 01:00,31.564,24.755,31.878,6.67
2019-06-12 02:00,31.542,24.735,31.880,6.70
2019-06-12 03:00,31.618,24.813,31.833,6.56
2019-06-12 04:00,31.536,24.731,31.869,6.69
2019-06-12 05:00,31.590,24.786,31.832,6.59
2019-06-12 06:00,31.639,24.835,31.811,6.51
2019-06-12 07:00,31.629,24.831,31.772,6.48
2019-06-12 08:00,31.655,24.864,31.721,6.39
2019-06-12 09:00,31.672,24.897,31.597,6.22
2019-06-12 10:00,31.604,24.863,31.407,6.07
2019-06-12 11:00,31.589,24.847,31.413,6.09
2019-06-12 12:00,31.529,24.774,31.538,6.30
2019-06-12 13:00,31.684,24.856,31.953,6.63
2019-06-12 14:00,31.683,24.870,31.847,6.51
2019-06-12 15:00,31.676,24.867,31.827,6.49
2019-06-12 16:00,31.710,24.920,31.678,6.28
2019-06-12 17:00,31.659,24.902,31.480,6.10
2019-06-12 18:00,31.695,24.884,31.832,6.48
2019-06-12 19:00,31.675,24.917,31.479,6.08
2019-06-12 20:00,31.658,24.909,31.428,6.03
2019-06-12 21:00,31.649,24.905,31.396,6.01
2019-06-12 22:00,31.647,24.899,31.429,6.05
2019-06-12 23:00,31.653,24.906,31.413,6.02
2019-06-13 00:00,31.656,24.872,31.664,6.32
2019-06-13 01:00,31.621,24.859,31.538,6.21
2019-06-13 02:00,31.640,24.887,31.465,6.10
2019-06-13 03:00,31.641,24.887,31.474,6.11
2019-06-13 04:00,31.663,24.914,31.423,6.02
2019-06-13 05:00,31.667,24.919,31.419,6.01
2019-06-13 06:00,31.714,24.962,31.415,5.96
2019-06-13 07:00,31.699,24.948,31.419,5.98
2019-06-13 08:00,31.711,24.957,31.430,5.98
2019-06-13 09:00,31.702,24.939,31.498,6.07
2019-06-13 10:00,31.714,24.949,31.507,6.07
2019-06-13 11:00,31.741,24.982,31.452,5.97
2019-06-13 12:00,31.729,24.963,31.505,6.05
2019-06-13 13:00,31.794,25.015,31.559,6.05
2019-06-13 14:00,31.727,24.872,32.109,6.77
2019-06-13 15:00,31.688,24.864,31.922,6.59
2019-06-13 16:00,31.671,24.900,31.575,6.20
2019-06-13 17:00,31.692,24.877,31.856,6.51
2019-06-13 18:00,31.655,24.861,31.741,6.41
2019-06-13 19:00,31.696,24.942,31.438,6.01
2019-06-13 20:00,31.682,24.923,31.484,6.07
2019-06-13 21:00,31.726,24.930,31.712,6.30
2019-06-13 22:00,31.772,24.919,32.072,6.68
2019-06-13 23:00,31.871,24.906,32.747,7.37
2019-06-14 00:00,31.779,24.921,32.101,6.70
2019-06-14 01:00,31.734,24.857,32.249,6.93
2019-06-14 02:00,31.746,24.765,32.898,7.68
2019-06-14 03:00,31.737,24.865,32.211,6.88
2019-06-14 04:00,31.719,24.919,31.740,6.34
2019-06-14 05:00,31.685,24.929,31.459,6.04
2019-06-14 06:00,31.703,24.946,31.454,6.02
2019-06-14 07:00,31.669,24.906,31.521,6.13
2019-06-14 08:00,31.710,24.911,31.744,6.35
2019-06-14 09:00,31.759,24.897,32.139,6.77
2019-06-14 10:00,31.765,24.900,32.154,6.78
2019-06-14 11:00,31.967,24.972,32.897,7.44
2019-06-14 12:00,31.932,24.861,33.379,8.04
2019-06-14 13:00,31.918,24.819,33.549,8.25
2019-06-14 14:00,31.998,24.972,33.077,7.61
2019-06-14 15:00,31.889,24.778,33.629,8.37
2019-06-14 16:00,31.984,24.893,33.478,8.09
2019-06-14 17:00,31.938,24.863,33.401,8.05
2019-06-14 18:00,31.932,24.926,32.977,7.57
2019-06-14 19:00,31.880,24.859,33.092,7.76
2019-06-14 20:00,31.900,24.869,33.146,7.80
2019-06-14 21:00,31.782,24.872,32.439,7.10
2019-06-14 22:00,31.826,24.890,32.586,7.22
2019-06-14 23:00,31.847,24.845,32.987,7.67
2019-06-15 00:00,31.890,25.019,32.129,6.62
2019-06-15 01:00,31.773,24.940,31.939,6.52
2019-06-15 02:00,31.777,24.962,31.813,6.36
2019-06-15 03:00,31.769,24.948,31.864,6.43
2019-06-15 04:00,31.790,24.980,31.772,6.30
2019-06-15 05:00,31.771,24.957,31.814,6.37
2019-06-15 06:00,31.765,24.940,31.889,6.47
2019-06-15 07:00,31.707,24.858,32.081,6.76
2019-06-15 08:00,31.704,24.839,32.181,6.88
2019-06-15 09:00,31.657,24.757,32.426,7.22
2019-06-15 10:00,31.639,24.716,32.579,7.42
2019-06-15 11:00,31.737,24.903,31.968,6.59
2019-06-15 12:00,31.773,24.950,31.868,6.44
2019-06-15 13:00,31.777,24.967,31.781,6.33
2019-06-15 14:00,31.803,25.002,31.706,6.21
2019-06-15 15:00,31.742,24.929,31.817,6.41
2019-06-15 16:00,31.744,24.923,31.874,6.47
2019-06-15 17:00,31.768,24.949,31.846,6.41
2019-06-15 18:00,31.769,24.952,31.837,6.40
2019-06-15 19:00,31.777,24.960,31.833,6.39
2019-06-15 20:00,31.760,24.942,31.843,6.42
2019-06-15 21:00,31.707,24.883,31.906,6.55
2019-06-15 22:00,31.735,24.916,31.865,6.47
2019-06-15 23:00,31.707,24.876,31.955,6.61
2019-06-16 00:00,31.748,24.927,31.869,6.46
2019-06-16 01:00,31.729,24.899,31.941,6.57
2019-06-16 02:00,31.777,24.968,31.771,6.31
2019-06-16 03:00,31.779,24.969,31.783,6.33
2019-06-16 04:00,31.747,24.928,31.860,6.45
2019-06-16 05:00,31.748,24.933,31.832,6.42
2019-06-16 06:00,31.742,24.932,31.795,6.38
2019-06-16 07:00,31.741,24.923,31.852,6.45
2019-06-16 08:00,31.750,24.935,31.830,6.41
2019-06-16 09:00,31.751,24.935,31.836,6.42
2019-06-16 10:00,31.786,24.980,31.749,6.28
2019-06-16 11:00,31.829,25.029,31.680,6.15
2019-06-16 12:00,31.775,24.957,31.838,6.40
2019-06-16 13:00,31.749,24.927,31.877,6.47
2019-06-16 14:00,31.722,24.893,31.939,6.57
2019-06-16 15:00,31.716,24.882,31.974,6.62
2019-06-16 16:00,31.798,25.000,31.689,6.20
2019-06-16 17:00,31.782,24.970,31.790,6.33
2019-06-16 18:00,31.742,24.926,31.840,6.43
2019-06-16 19:00,31.792,24.991,31.711,6.23
2019-06-16 20:00,31.791,24.988,31.728,6.25
2019-06-16 21:00,31.790,24.986,31.735,6.26
2019-06-16 22:00,31.810,25.007,31.715,6.21
2019-06-16 23:00,31.814,25.012,31.704,6.20
2019-06-17 00:00,31.789,24.986,31.726,6.25
2019-06-17 01:00,31.791,24.994,31.687,6.20
2019-06-17 02:00,31.799,24.986,31.791,6.31
2019-06-17 03:00,31.768,24.924,32.016,6.61
2019-06-17 04:00,31.807,24.968,31.960,6.51
2019-06-17 05:00,31.780,24.924,32.090,6.69
2019-06-17 06:00,31.830,24.994,31.925,6.44
2019-06-17 07:00,31.796,24.892,32.391,7.03
2019-06-17 08:00,31.775,24.942,31.936,6.51
2019-06-17 09:00,31.784,24.942,31.990,6.57
2019-06-17 10:00,31.773,24.973,31.714,6.25
2019-06-17 11:00,32.160,25.231,32.385,6.63
2019-06-17 12:00,31.837,24.950,32.266,6.84
2019-06-17 13:00,31.845,24.963,32.223,6.78
2019-06-17 14:00,31.845,24.976,32.142,6.68
2019-06-17 15:00,31.821,24.947,32.183,6.76
2019-06-17 16:00,31.849,25.018,31.886,6.37
2019-06-17 17:00,31.851,24.994,32.058,6.58
2019-06-17 18:00,31.864,24.987,32.183,6.71
2019-06-17 19:00,31.879,25.012,32.111,6.61
2019-06-17 20:00,31.832,24.940,32.302,6.88
2019-06-17 21:00,31.823,24.932,32.303,6.89
2019-06-17 22:00,31.818,24.918,32.361,6.97
2019-06-17 23:00,31.856,24.886,32.786,7.43
2019-06-18 00:00,31.627,24.613,33.138,8.09
2019-06-18 01:00,31.718,24.758,32.779,7.57
2019-06-18 02:00,31.720,24.764,32.755,7.54
2019-06-18 03:00,31.753,24.818,32.607,7.33
2019-06-18 04:00,31.848,24.976,32.160,6.70
2019-06-18 05:00,31.818,24.906,32.439,7.06
2019-06-18 06:00,31.765,24.859,32.418,7.09
2019-06-18 07:00,31.851,24.978,32.160,6.70
2019-06-18 08:00,31.855,24.993,32.088,6.61
2019-06-18 09:00,31.817,24.958,32.093,6.65
2019-06-18 10:00,31.817,24.965,32.041,6.59
2019-06-18 11:00,31.780,24.904,32.218,6.84
2019-06-18 12:00,31.575,24.483,33.607,8.70
2019-06-18 13:00,31.714,24.752,32.796,7.59
2019-06-18 14:00,31.746,24.790,32.745,7.50
2019-06-18 15:00,31.731,24.751,32.896,7.69
2019-06-18 16:00,31.737,24.787,32.710,7.47
2019-06-18 17:00,31.786,24.934,32.060,6.65
2019-06-18 18:00,31.798,24.952,32.013,6.58
2019-06-18 19:00,31.783,24.926,32.092,6.69
2019-06-18 20:00,31.810,24.948,32.114,6.69
2019-06-18 21:00,31.799,24.939,32.104,6.69
2019-06-18 22:00,31.796,24.942,32.063,6.64
2019-06-18 23:00,31.838,24.950,32.271,6.84
2019-06-19 00:00,31.831,24.890,32.611,7.25
2019-06-19 01:00,31.841,24.908,32.562,7.18
2019-06-19 02:00,31.584,24.666,32.573,7.47
2019-06-19 03:00,31.750,24.818,32.591,7.31
2019-06-19 04:00,31.708,24.866,32.031,6.70
2019-06-19 05:00,31.705,24.804,32.414,7.15
2019-06-19 06:00,31.763,24.967,31.688,6.23
2019-06-19 07:00,31.728,24.923,31.777,6.37
2019-06-19 08:00,31.741,24.929,31.812,6.40
2019-06-19 09:00,31.735,24.920,31.837,6.44
2019-06-19 10:00,31.725,24.914,31.815,6.42
2019-06-19 11:00,31.749,24.946,31.749,6.32
2019-06-19 12:00,31.731,24.813,32.512,7.24
2019-06-19 13:00,31.705,24.784,32.537,7.30
2019-06-19 14:00,31.665,24.694,32.869,7.73
2019-06-19 15:00,31.664,24.795,32.228,6.98
2019-06-19 16:00,31.730,24.908,31.890,6.51
2019-06-19 17:00,31.750,24.950,31.728,6.29
2019-06-19 18:00,31.739,24.939,31.734,6.31
2019-06-19 19:00,31.747,24.951,31.698,6.26
2019-06-19 20:00,31.750,24.955,31.694,6.25
2019-06-19 21:00,31.754,24.956,31.711,6.27
2019-06-19 22:00,31.719,24.904,31.844,6.46
2019-06-19 23:00,31.711,24.891,31.884,6.52
2019-06-20 00:00,31.693,24.855,32.007,6.69
2019-06-20 01:00,31.694,24.801,32.369,7.11
2019-06-20 02:00,31.629,24.662,32.859,7.76
2019-06-20 03:00,31.490,24.448,33.347,8.49
2019-06-20 04:00,31.659,24.763,32.402,7.19
2019-06-20 05:00,31.706,24.873,31.969,6.63
2019-06-20 06:00,31.716,24.891,31.913,6.55
2019-06-20 07:00,31.731,24.913,31.860,6.47
2019-06-20 08:00,31.744,24.930,31.825,6.41
2019-06-20 09:00,31.763,24.952,31.794,6.36
2019-06-20 10:00,31.679,24.847,31.978,6.67
2019-06-20 11:00,31.673,24.824,32.093,6.81
2019-06-20 12:00,31.648,24.792,32.147,6.90
2019-06-20 13:00,31.610,24.740,32.259,7.07
2019-06-20 14:00,31.498,24.505,33.061,8.14
2019-06-20 15:00,31.591,24.717,32.293,7.13
2019-06-20 16:00,31.641,24.785,32.154,6.92
2019-06-20 17:00,31.620,24.757,32.205,7.00
2019-06-20 18:00,31.678,24.830,32.080,6.79
2019-06-20 19:00,31.650,24.805,32.077,6.81
2019-06-20 20:00,31.712,24.890,31.898,6.53
2019-06-20 21:00,31.741,24.924,31.847,6.44
2019-06-20 22:00,31.725,24.898,31.921,6.55
2019-06-20 23:00,31.700,24.862,32.008,6.68
2019-06-21 00:00,31.717,24.881,31.982,6.63
2019-06-21 01:00,31.695,24.859,31.999,6.67
2019-06-21 02:00,31.696,24.859,32.002,6.68
2019-06-21 03:00,31.667,24.824,32.056,6.77
2019-06-21 04:00,31.628,24.768,32.186,6.97
2019-06-21 05:00,31.631,24.776,32.153,6.93
2019-06-21 06:00,31.697,24.860,32.003,6.68
2019-06-21 07:00,31.704,24.872,31.969,6.63
2019-06-21 08:00,31.700,24.850,32.086,6.77
2019-06-21 09:00,31.715,24.867,32.070,6.74
2019-06-21 10:00,31.689,24.837,32.107,6.81
2019-06-21 11:00,31.678,24.829,32.090,6.80
2019-06-21 12:00,31.659,24.816,32.062,6.79
2019-06-21 13:00,31.663,24.821,32.055,6.77
2019-06-21 14:00,31.650,24.804,32.079,6.82
2019-06-21 15:00,31.591,24.729,32.214,7.04
2019-06-21 16:00,31.586,24.731,32.171,7.00
2019-06-21 17:00,31.558,24.694,32.247,7.12
2019-06-21 18:00,31.596,24.739,32.184,7.00
2019-06-21 19:00,31.646,24.808,32.033,6.77
2019-06-21 20:00,31.663,24.828,32.009,6.72
2019-06-21 21:00,31.667,24.836,31.975,6.68
2019-06-21 22:00,31.659,24.831,31.961,6.67
2019-06-21 23:00,31.674,24.847,31.943,6.63
2019-06-22 00:00,31.658,24.825,31.992,6.71
2019-06-22 01:00,31.627,24.789,32.046,6.80
2019-06-22 02:00,31.573,24.701,32.291,7.15
2019-06-22 03:00,31.583,24.706,32.320,7.17
2019-06-22 04:00,31.637,24.798,32.041,6.79
2019-06-22 05:00,31.597,24.715,32.340,7.18
2019-06-22 06:00,31.636,24.804,32.003,6.74
2019-06-22 07:00,31.652,24.824,31.965,6.68
2019-06-22 08:00,31.664,24.827,32.014,6.73
2019-06-22 09:00,31.648,24.805,32.069,6.81
2019-06-22 10:00,31.676,24.836,32.036,6.74
2019-06-22 11:00,31.666,24.823,32.061,6.78
2019-06-22 12:00,31.654,24.815,32.042,6.77
2019-06-22 13:00,31.629,24.770,32.179,6.96
2019-06-22 14:00,31.608,24.748,32.199,7.00
2019-06-22 15:00,31.696,24.867,31.952,6.62
2019-06-22 16:00,31.654,24.798,32.147,6.89
2019-06-22 17:00,31.672,24.821,32.106,6.82
2019-06-22 18:00,31.632,24.749,32.329,7.13
2019-06-22 19:00,31.669,24.830,32.028,6.74
2019-06-22 20:00,31.661,24.802,32.164,6.91
2019-06-22 21:00,31.682,24.853,31.962,6.64
2019-06-22 22:00,31.707,24.890,31.864,6.50
2019-06-22 23:00,31.702,24.885,31.864,6.51
2019-06-23 00:00,31.700,24.880,31.888,6.54
2019-06-23 01:00,31.641,24.792,32.104,6.86
2019-06-23 02:00,31.663,24.823,32.034,6.75
2019-06-23 03:00,31.685,24.858,31.945,6.62
2019-06-23 04:00,31.656,24.792,32.200,6.95
2019-06-23 05:00,31.648,24.799,32.105,6.85
2019-06-23 06:00,31.658,24.824,32.001,6.72
2019-06-23 07:00,31.655,24.827,31.967,6.68
2019-06-23 08:00,31.631,24.791,32.059,6.81
2019-06-23 09:00,31.671,24.841,31.969,6.66
2019-06-23 10:00,31.707,24.885,31.892,6.53
2019-06-23 11:00,31.706,24.887,31.878,6.52
2019-06-23 12:00,31.688,24.862,31.938,6.61
2019-06-23 13:00,31.694,24.869,31.925,6.59
2019-06-23 14:00,31.689,24.867,31.904,6.57
2019-06-23 15:00,31.599,24.722,32.306,7.14
2019-06-23 16:00,31.574,24.658,32.566,7.48
2019-06-23 17:00,31.631,24.782,32.113,6.88
2019-06-23 18:00,31.645,24.809,32.026,6.76
2019-06-23 19:00,31.666,24.817,32.096,6.82
2019-06-23 20:00,31.684,24.859,31.930,6.60
2019-06-23 21:00,31.671,24.841,31.968,6.66
2019-06-23 22:00,31.689,24.872,31.873,6.53
2019-06-23 23:00,31.769,24.964,31.749,6.30
2019-06-24 00:00,31.702,24.880,31.900,6.55
2019-06-24 01:00,31.717,24.898,31.869,6.50
2019-06-24 02:00,31.693,24.847,32.065,6.75
2019-06-24 03:00,31.694,24.841,32.108,6.80
2019-06-24 04:00,31.599,24.743,32.176,6.99
2019-06-24 05:00,31.637,24.778,32.179,6.95
2019-06-24 06:00,31.610,24.733,32.307,7.13
2019-06-24 07:00,31.678,24.824,32.123,6.84
2019-06-24 08:00,31.706,24.860,32.056,6.73